Latham, NY

10:06 AM EDT on August 27, 2016 (GMT -0400)
Albany International

Weather History for KALB - September, 2013

Change the Weather History Date:

Tuesday, September 10, 2013

  Actual Average Record
Temperature  
Mean Temperature 71 °F 64 °F  
Max Temperature 79 °F 75 °F 96 °F (1931)
Min Temperature 62 °F 54 °F 34 °F (1978)
Degree Days  
Heating Degree Days 0 3  
Month to date heating degree days 31 21  
Since 1 July heating degree days 37 44  
Cooling Degree Days 6 2  
Month to date cooling degree days 36 29  
Year to date cooling degree days 734 572  
Growing Degree Days 20 (Base 50)    
Moisture  
Dew Point 64 °F    
Average Humidity 81    
Maximum Humidity 90    
Minimum Humidity 72    
Precipitation  
Precipitation 0.45 in 0.10 in 3.23 in (1890)
Month to date precipitation 1.06 1.01  
Year to date precipitation 32.57 27.16  
Sea Level Pressure  
Sea Level Pressure 30.05 in    
Wind  
Wind Speed 8 mph (South)    
Max Wind Speed 20 mph    
Max Gust Speed 26 mph    
Visibility 7 miles    
Events Rain , Thunderstorm    
T = Trace of Precipitation, MM = Missing Value Source: NWS Daily Summary

Daily Weather History Graph

Daily Weather History Graph

Search for Another Location

Airport or City:

Trip Planner

Search our weather history database for the weather conditions in past years. The results will help you decide how hot, cold, wet, or windy it might be!

Date:

Astronomy

Sep. 10, 2013 Rise Set
Actual Time 6:29 AM EDT 7:13 PM EDT
Civil Twilight 6:01 AM EDT 7:42 PM EDT
Nautical Twilight 5:27 AM EDT 8:15 PM EDT
Astronomical Twilight 4:52 AM EDT 8:50 PM EDT
Moon 12:00 PM EDT (9/10) 10:06 PM EDT (9/10)
Length of Visible Light 13h 40m
Length of Day
12h 43m
Waxing Crescent, 28% of the Moon is Illuminated
Sep 10
Waxing Crescent
Sep 12
First Quarter
Sep 19
Full
Sep 26
Last Quarter
Oct 4
New

Hourly Weather History & Observations

Time (EDT) Temp. Dew Point Humidity Pressure Visibility Wind Dir Wind Speed Gust Speed Precip Events Conditions
12:51 AM 62.1 °F 53.1 °F 72% 30.09 in 10.0 mi South 10.4 mph - N/A   Mostly Cloudy
1:51 AM 63.0 °F 54.0 °F 72% 30.09 in 10.0 mi South 8.1 mph - N/A   Overcast
2:51 AM 63.0 °F 55.0 °F 75% 30.09 in 10.0 mi South 6.9 mph - N/A   Overcast
3:51 AM 64.0 °F 55.9 °F 75% 30.08 in 10.0 mi South 8.1 mph - N/A   Overcast
4:51 AM 62.1 °F 57.9 °F 86% 30.08 in 10.0 mi SSE 5.8 mph - 0.00 in   Overcast
5:51 AM 63.0 °F 59.0 °F 87% 30.07 in 10.0 mi South 6.9 mph - N/A   Overcast
6:51 AM 64.0 °F 59.0 °F 84% 30.07 in 10.0 mi South 9.2 mph - N/A   Overcast
7:51 AM 64.9 °F 61.0 °F 87% 30.07 in 10.0 mi South 10.4 mph 17.3 mph N/A   Overcast
8:37 AM 66.2 °F 62.6 °F 88% 30.06 in 8.0 mi South 8.1 mph - 0.00 in Rain , Thunderstorm Light Thunderstorms and Rain
8:51 AM 66.0 °F 62.1 °F 87% 30.07 in 7.0 mi South 6.9 mph - 0.01 in Rain , Thunderstorm Light Thunderstorms and Rain
8:59 AM 66.2 °F 62.6 °F 88% 30.07 in 1.5 mi South 8.1 mph - 0.02 in Rain , Thunderstorm Heavy Thunderstorms and Rain
9:16 AM 64.4 °F 62.6 °F 94% 30.07 in 6.0 mi South 9.2 mph - 0.17 in Rain , Thunderstorm Light Thunderstorms and Rain
9:27 AM 66.2 °F 62.6 °F 88% 30.10 in 5.0 mi South 4.6 mph - 0.20 in Rain , Thunderstorm Light Thunderstorms and Rain
9:33 AM 66.2 °F 62.6 °F 88% 30.10 in 1.0 mi SSE 6.9 mph - 0.20 in Rain , Thunderstorm Heavy Thunderstorms and Rain
9:39 AM 64.4 °F 62.6 °F 94% 30.10 in 3.0 mi SSE 5.8 mph - 0.35 in Rain , Thunderstorm Thunderstorms and Rain
9:51 AM 66.0 °F 63.0 °F 90% 30.09 in 4.0 mi SSE 11.5 mph - 0.37 in Rain , Thunderstorm Light Thunderstorms and Rain
9:56 AM 66.2 °F 62.6 °F 88% 30.08 in 4.0 mi SSE 9.2 mph - 0.00 in Rain Light Rain
10:12 AM 66.2 °F 62.6 °F 88% 30.05 in 4.0 mi SSE 13.8 mph 20.7 mph 0.03 in Rain Rain
10:51 AM 66.0 °F 64.0 °F 93% 30.01 in 6.0 mi South 15.0 mph 24.2 mph 0.07 in Rain Light Rain
11:51 AM 66.9 °F 64.9 °F 93% 30.02 in 6.0 mi South 10.4 mph 19.6 mph 0.00 in   Overcast
12:51 PM 69.1 °F 66.0 °F 90% 30.03 in 6.0 mi South 9.2 mph - N/A   Overcast
1:51 PM 72.0 °F 66.9 °F 84% 30.04 in 7.0 mi SSE 9.2 mph - N/A   Overcast
2:35 PM 73.4 °F 66.2 °F 78% 30.03 in 7.0 mi South 6.9 mph - N/A   Overcast
2:51 PM 73.0 °F 66.9 °F 81% 30.02 in 7.0 mi South 10.4 mph - N/A   Overcast
3:10 PM 73.4 °F 66.2 °F 78% 30.02 in 7.0 mi South 6.9 mph - N/A   Overcast
3:51 PM 75.9 °F 69.1 °F 79% 30.01 in 7.0 mi South 5.8 mph - N/A   Overcast
4:51 PM 79.0 °F 69.1 °F 72% 30.00 in 7.0 mi South 5.8 mph - N/A   Mostly Cloudy
5:51 PM 79.0 °F 71.1 °F 77% 29.99 in 7.0 mi South 9.2 mph - N/A   Scattered Clouds
6:51 PM 78.1 °F 71.1 °F 79% 29.99 in 7.0 mi South 6.9 mph - N/A   Partly Cloudy
7:51 PM 77.0 °F 71.1 °F 82% 30.01 in 7.0 mi SSE 8.1 mph - N/A   Partly Cloudy
8:51 PM 77.0 °F 71.1 °F 82% 30.02 in 7.0 mi SSE 9.2 mph - N/A   Partly Cloudy
9:51 PM 77.0 °F 71.1 °F 82% 30.02 in 7.0 mi South 10.4 mph - N/A   Partly Cloudy
10:51 PM 75.9 °F 71.1 °F 85% 30.03 in 7.0 mi South 5.8 mph - N/A   Partly Cloudy
11:51 PM 75.9 °F 71.1 °F 85% 30.03 in 7.0 mi South 5.8 mph - N/A   Partly Cloudy